RH
67 38 32 39 32 33 38 26 26 62 64 52 48 44 41 49 65 91 64 69 80 88 81 86 94 92 91 91 92 93 92 91 91 90 91 92 90 90 88 87 88 86 82 79 81 80 79 81 86
70 38 36 32 33 35 52 49 80 58 53 52 55 54 59 68 51 58 58 60 69 77 80 91 94 93 93 92 92 93 91 91 92 90 90 92 90 89 88 88 89 85 76 77 80 79 78 83 86
48 36 40 34 28 44 65 72 76 66 66 55 68 62 70 77 54 46 57 67 76 80 75 88 95 94 93 94 94 94 93 93 92 90 90 90 88 88 87 84 86 84 78 79 80 80 81 84 83
27 36 30 22 26 36 47 67 54 71 70 80 61 72 61 52 68 52 58 67 81 84 76 91 96 94 94 93 92 92 92 93 92 91 90 89 86 86 85 86 86 81 84 82 83 82 85 84 82
26 26 24 23 25 25 27 54 62 68 71 65 67 69 65 62 62 52 56 66 80 90 95 95 96 94 93 92 91 92 92 92 92 91 91 90 87 85 87 90 90 89 90 87 87 87 86 83 81
24 24 23 25 25 26 25 24 37 58 60 62 58 60 66 63 66 58 56 66 75 87 89 90 92 94 93 92 92 92 92 92 92 92 92 91 90 89 91 90 89 90 93 92 90 88 86 83 83
24 19 26 24 29 28 25 21 26 28 30 40 39 56 56 58 63 51 53 54 58 64 76 90 93 91 92 92 92 93 93 92 92 92 92 92 92 91 90 87 86 89 92 91 89 88 87 84 84
20 16 22 24 29 31 23 22 22 24 29 26 33 53 64 60 52 44 42 48 52 55 60 70 75 88 94 94 92 93 93 92 92 92 91 92 91 90 88 85 85 90 92 91 90 90 89 87 84
13 18 23 25 28 27 21 23 20 19 24 25 26 48 38 39 41 52 58 47 51 53 54 62 73 78 86 90 88 93 92 91 91 91 91 98 96 93 88 86 84 88 91 91 91 90 89 87 86
14 19 23 20 22 24 23 22 22 23 23 26 28 26 25 37 42 52 61 61 55 59 56 58 67 77 76 73 86 91 88 96 95 89 93 96 92 91 77 84 85 85 90 90 90 90 91 92 90
17 16 19 23 20 20 21 21 21 24 27 25 28 29 28 30 34 41 52 61 68 70 64 60 60 67 78 87 90 93 82 87 88 80 83 86 75 82 82 93 89 95 92 97 95 95 94 89 87
15 15 17 21 20 21 22 20 21 21 24 22 24 25 28 29 30 34 41 43 58 57 62 64 71 64 70 90 86 84 96 88 72 79 73 78 82 79 83 88 85 92 92 95 96 94 83 80 69
15 15 16 18 19 20 18 22 22 22 18 19 20 24 28 29 30 29 36 38 43 49 54 65 63 75 77 78 87 84 86 97 96 85 76 76 77 81 70 74 78 77 82 83 87 83 75 73 68
14 13 15 17 18 17 18 21 21 20 19 19 21 23 26 28 31 31 35 40 41 42 48 51 52 55 65 84 77 92 89 93 97 96 93 79 75 79 83 66 70 69 73 70 71 71 69 69 70
13 15 14 14 18 21 20 24 25 20 19 21 23 25 27 29 31 35 36 42 43 42 48 53 44 53 60 65 76 86 96 97 94 94 92 92 92 84 75 80 73 68 64 68 68 61 72 61 64
14 16 19 14 14 10 21 35 22 20 21 23 23 25 28 31 32 36 35 42 45 50 51 49 51 58 57 56 56 71 82 91 95 94 92 92 91 91 94 80 78 75 66 67 70 67 68 72 70
18 23 17 16 13 11 25 33 28 23 21 24 27 27 26 30 33 36 37 44 48 51 53 48 55 61 58 55 62 65 66 72 97 94 93 89 92 92 95 97 87 79 80 73 71 70 72 71 72
18 20 18 18 19 25 30 32 31 27 26 29 32 31 31 31 33 33 36 40 47 50 52 49 50 61 58 56 60 56 59 62 92 94 90 87 91 90 93 97 98 96 92 80 70 74 74 70 70
14 15 16 17 14 26 30 34 31 30 29 29 32 34 32 31 30 34 36 42 45 51 50 50 49 55 51 52 56 58 65 62 61 70 87 91 86 91 91 96 97 98 97 92 80 79 81 77 72
14 16 18 18 16 22 32 37 33 28 28 25 26 29 30 30 29 29 36 41 47 49 49 49 50 52 50 53 52 62 64 61 62 64 75 86 86 85 87 91 91 95 97 95 91 94 90 89 82
14 18 16 18 18 18 29 40 34 26 21 20 23 25 25 28 30 27 26 34 49 50 51 47 50 49 55 57 55 52 54 58 56 62 61 75 82 81 90 89 87 91 94 97 95 97 95 92 89
22 14 14 14 19 31 19 44 38 30 22 21 23 26 26 28 24 24 26 27 49 52 53 50 49 48 49 57 62 64 62 60 64 70 66 62 76 79 77 84 89 91 93 94 96 96 96 96 91
23 20 20 19 24 28 23 24 44 30 23 23 25 25 27 30 32 31 30 27 49 56 53 55 48 50 55 58 61 68 64 66 64 68 71 65 70 76 75 79 85 87 93 89 93 93 96 97 95
21 26 24 26 33 58 26 26 42 32 24 23 23 23 30 34 34 29 30 34 44 50 53 54 50 50 55 58 60 66 66 64 63 64 69 70 72 69 75 72 86 84 85 87 91 91 93 96 96
26 58 92 73 74 78 23 31 41 26 23 23 25 29 34 37 36 38 36 38 41 46 53 46 50 50 55 57 58 64 65 64 68 68 69 73 73 68 69 71 86 80 85 85 90 90 91 94 96
25 47 92 79 87 45 24 31 63 24 23 23 22 30 33 37 37 39 39 46 41 41 53 51 50 48 52 55 58 62 61 69 68 71 74 74 75 71 73 68 81 81 80 84 89 90 89 90 95
37 74 42 65 65 61 33 46 38 19 22 19 24 30 35 38 37 37 38 44 40 45 51 49 51 48 51 54 59 60 62 65 68 69 72 76 75 62 64 68 81 83 75 85 85 88 87 89 92
44 34 66 93 82 80 56 43 66 24 22 22 30 34 36 35 35 36 36 40 40 44 45 46 50 46 52 56 60 58 62 64 67 70 71 72 74 74 73 72 78 78 75 83 84 87 82 85 88
43 61 67 74 80 88 83 49 32 26 28 29 29 31 33 34 34 34 36 37 37 40 44 47 48 46 51 53 56 62 65 65 66 70 71 72 73 74 72 73 74 78 75 85 81 85 81 82 83
30 59 62 85 86 82 77 54 30 31 26 26 26 25 32 32 33 33 33 35 36 39 42 42 47 47 48 49 54 60 64 64 65 68 68 71 71 74 72 72 76 76 76 88 88 85 82 81 84
Wind_Speed
8 12 5 3 5 5 2 3 8 28 30 26 15 11 18 15 6 6 8 14 13 13 10 11 11 14 15 15 14 13 12 12 14 13 13 12 12 12 12 12 13 14 14 15 15 14 13 13 12
5 8 1 2 4 2 9 17 28 17 24 22 25 23 23 22 19 12 11 15 17 14 10 8 11 12 14 12 13 13 12 12 12 13 12 11 12 11 11 10 11 13 13 14 13 12 10 10 11
4 4 3 2 6 13 7 18 16 24 22 16 13 15 9 8 14 9 19 19 19 13 10 10 11 11 13 12 11 11 11 11 10 11 12 11 11 11 10 10 11 12 12 12 11 10 8 10 9
4 2 3 13 22 19 19 13 17 22 16 18 14 16 9 11 9 11 20 19 18 10 10 10 10 11 11 11 11 10 10 10 10 10 11 11 10 11 11 12 12 12 11 10 9 8 7 8 7
1 2 7 19 23 21 22 19 20 19 14 18 15 8 9 13 16 16 19 17 17 9 6 6 10 10 10 10 10 10 10 9 9 10 10 10 10 10 11 12 11 10 10 9 8 7 6 6 7
5 2 9 15 22 23 23 20 20 19 11 12 15 10 8 6 21 19 17 15 11 10 6 7 10 9 9 9 9 9 9 9 8 9 10 9 9 10 10 9 8 8 7 7 7 6 5 6 7
3 10 9 19 22 25 21 21 24 19 21 13 9 6 4 22 10 12 17 20 19 15 9 5 5 7 9 8 9 8 8 7 7 8 9 9 9 8 8 8 7 7 6 6 6 5 4 5 7
6 9 13 13 18 21 21 25 13 19 24 19 6 10 8 9 10 15 16 16 17 15 13 12 6 3 4 5 8 8 6 6 6 6 7 8 7 8 6 7 7 7 7 6 5 4 2 2 6
9 13 13 8 17 16 18 22 17 16 22 25 24 14 15 9 14 21 19 20 16 14 13 10 11 11 5 3 2 5 8 6 4 5 6 5 4 5 6 6 7 8 8 7 6 4 3 5 7
19 15 13 16 16 20 18 20 16 14 19 20 19 17 14 13 16 18 16 15 18 18 15 12 13 11 10 8 3 3 2 3 5 5 6 4 5 5 6 7 9 9 8 8 7 6 7 6 4
6 15 11 12 18 21 22 21 8 14 17 15 14 15 15 14 15 14 12 13 11 10 11 13 15 13 11 7 6 4 2 3 3 6 6 5 4 4 5 4 3 4 7 4 5 4 4 5 4
26 17 17 15 13 19 21 14 15 14 10 14 15 13 14 16 14 12 14 12 10 13 13 12 14 12 11 5 5 5 6 5 3 4 7 4 3 4 4 4 5 4 4 5 5 4 6 6 7
22 16 15 17 20 17 19 13 10 11 10 12 15 15 15 15 14 13 13 14 14 14 13 11 13 12 12 8 5 6 6 7 9 3 5 4 4 4 4 5 5 5 5 5 5 5 5 6 8
8 17 13 14 17 15 19 11 7 8 10 14 17 17 16 17 15 15 15 15 15 14 14 11 12 12 11 8 11 6 4 7 7 9 8 6 5 3 3 4 5 5 5 6 7 7 8 6 6
10 15 9 6 6 13 17 13 8 8 10 12 15 15 15 15 15 14 11 14 13 9 10 10 13 11 12 12 9 8 5 5 6 7 11 15 12 10 5 3 5 5 5 7 5 8 4 6 3
6 7 6 4 1 4 12 4 5 8 11 11 12 12 12 11 12 10 11 10 10 7 9 10 10 12 13 12 10 7 8 7 5 8 9 13 14 14 10 6 4 5 5 3 3 4 3 3 3
4 4 9 3 2 3 8 7 3 8 11 10 9 9 11 9 10 8 9 8 8 8 8 9 8 10 12 13 8 8 9 8 5 6 8 12 12 13 11 5 7 7 4 4 4 4 3 3 4
8 7 6 6 4 19 13 7 5 7 10 9 9 9 8 8 7 7 8 7 7 8 7 8 7 8 9 8 7 8 8 8 5 4 6 10 8 10 10 8 6 9 8 7 7 5 4 4 5
13 13 8 2 3 8 10 9 7 7 9 9 8 8 8 7 6 6 6 7 7 6 8 8 8 8 8 8 9 9 9 9 8 7 6 6 7 8 11 8 8 3 12 9 11 10 6 5 4
9 14 6 2 2 6 11 8 7 8 6 7 9 8 8 7 7 7 7 7 6 6 7 8 7 7 6 5 6 4 6 7 6 7 7 6 7 9 8 9 10 8 7 8 9 9 9 5 4
11 6 5 5 1 2 9 3 7 6 8 9 7 7 6 5 4 5 7 6 4 7 7 7 8 7 6 7 4 5 5 5 8 9 8 7 7 8 7 7 9 10 7 6 6 9 9 10 9
4 5 3 4 3 4 6 4 6 9 8 8 8 7 5 3 5 6 7 8 5 5 7 8 7 6 6 7 6 6 5 5 6 5 7 9 7 9 10 9 7 6 7 8 8 6 7 7 14
3 2 4 4 5 3 4 6 5 10 9 7 8 7 5 8 8 8 7 7 6 5 6 7 8 7 7 7 7 5 6 4 4 5 8 10 7 7 9 10 9 9 5 8 8 10 9 7 10
5 3 5 3 1 3 3 6 5 5 7 7 6 7 8 8 8 7 6 6 4 5 6 7 8 5 7 7 8 7 8 8 7 7 6 7 6 7 7 9 7 9 9 11 7 9 8 7 11
2 5 3 5 5 6 2 5 5 7 8 9 8 9 7 8 7 5 6 6 6 6 4 4 7 6 7 8 8 7 7 7 7 7 6 6 6 8 9 9 6 8 9 11 9 10 12 11 11
4 3 6 6 2 3 1 3 7 6 8 8 8 9 8 7 4 4 6 4 5 7 3 4 5 5 6 6 6 5 7 4 4 5 5 5 4 6 7 11 6 8 10 11 9 7 7 9 9
2 4 1 5 2 2 3 3 6 7 7 6 7 8 7 6 5 5 5 2 1 5 3 2 3 4 5 5 4 4 4 5 5 7 6 4 5 7 9 10 6 6 10 9 10 7 9 9 7
4 3 4 5 3 2 6 5 5 8 8 7 6 7 6 5 4 2 1 1 2 3 1 1 3 2 2 3 3 3 5 5 5 5 6 7 7 6 7 8 7 7 8 8 9 9 10 11 9
1 2 4 4 4 5 1 5 5 6 7 7 5 6 6 5 2 2 3 3 2 3 3 1 2 1 2 2 3 4 4 4 5 5 5 6 7 7 7 6 6 7 8 7 9 9 11 13 13
3 3 6 6 5 2 4 7 6 8 7 7 6 5 7 7 7 5 3 3 2 3 2 2 3 2 4 1 2 3 4 4 5 5 6 6 6 7 6 6 5 6 6 5 6 7 8 12 13
Wind_Direction
334 313 299 4 51 70 274 32 102 90 78 82 83 73 66 68 32 72 136 106 106 94 94 86 86 99 99 101 96 87 78 76 81 76 67 69 73 71 73 80 84 88 90 90 88 88 89 89 80
332 313 349 287 73 61 33 26 55 76 105 87 70 83 76 70 76 113 101 95 86 85 81 76 82 90 93 92 95 94 89 79 77 80 75 73 75 75 72 75 87 86 92 91 89 89 93 85 79
297 194 34 82 40 45 67 35 70 63 38 79 84 45 43 5 4 94 93 87 78 73 83 80 78 85 94 93 90 91 92 85 74 77 80 73 75 75 69 71 96 93 91 88 91 96 85 77 76
315 33 343 67 52 52 71 64 69 59 51 55 94 75 84 24 2 62 91 88 86 77 85 80 82 85 87 95 96 92 89 92 90 79 76 80 79 82 79 66 59 88 79 83 89 86 73 74 64
228 350 59 66 62 54 56 59 68 72 75 74 99 86 63 10 11 35 98 98 95 93 78 75 79 84 86 89 94 96 92 89 93 94 82 80 83 85 83 73 63 63 82 89 84 66 52 44 40
1 73 74 75 65 56 54 48 65 80 84 63 67 84 71 8 36 35 53 60 92 116 114 89 79 77 83 88 90 91 97 100 94 93 98 91 82 87 85 82 78 81 85 87 91 82 38 16 13
85 76 95 87 84 69 62 57 53 62 58 55 81 75 68 35 22 47 50 59 56 47 33 27 103 104 88 89 94 97 96 99 106 100 102 108 107 102 108 100 87 91 104 106 106 91 54 2 345
155 105 89 80 80 87 82 66 61 59 60 61 58 47 45 9 22 54 53 55 54 42 37 35 31 4 107 111 115 108 103 108 114 115 117 124 129 131 133 121 114 116 124 126 126 128 132 298 304
85 83 71 74 92 99 87 80 70 76 77 65 63 95 85 66 50 47 38 40 39 34 32 36 30 29 28 89 92 120 133 133 136 140 154 155 172 176 172 176 142 138 146 153 160 177 213 247 275
92 85 81 86 90 75 70 74 71 73 67 73 72 64 56 60 54 59 51 46 36 26 18 19 30 30 18 34 3 284 246 198 182 186 189 196 211 203 171 161 160 156 165 171 182 203 219 245 260
58 100 91 86 95 86 82 66 51 76 69 67 73 70 52 47 53 63 61 61 47 32 15 16 26 21 17 21 0 3 270 250 253 204 205 205 222 193 159 164 174 169 175 185 193 209 234 241 255
86 74 82 80 85 87 83 83 64 58 85 89 85 81 68 52 47 57 59 54 45 34 16 20 21 17 11 7 16 355 342 329 244 246 214 201 229 192 172 171 184 194 177 194 202 206 215 224 234
88 96 97 100 97 90 93 82 96 74 59 86 83 75 72 61 49 44 64 49 45 34 17 8 27 6 356 358 5 9 356 343 332 329 247 231 209 229 208 188 184 206 177 195 207 224 225 222 229
138 106 102 100 103 98 84 61 75 58 75 75 73 65 61 59 52 45 55 45 39 29 17 11 24 6 355 357 356 342 358 344 343 344 350 296 289 223 231 253 191 211 197 195 205 209 223 226 224
112 102 67 72 116 127 97 38 51 87 82 79 82 78 68 59 52 46 49 53 41 24 12 10 21 9 7 2 353 347 339 355 9 4 5 14 3 330 281 232 276 229 216 214 202 230 221 227 233
92 58 86 343 274 202 82 101 34 87 81 71 72 81 79 70 63 55 45 56 39 19 18 8 14 10 10 3 358 358 358 356 18 27 11 11 1 3 345 322 295 281 276 240 228 210 250 236 240
180 115 120 98 239 158 97 142 161 103 89 78 65 61 72 67 59 59 55 66 52 26 20 14 14 21 8 356 353 0 354 357 39 28 16 14 8 353 348 326 325 332 315 286 249 241 185 240 278
150 124 81 120 39 91 99 133 113 91 96 97 80 67 59 67 77 76 67 68 59 35 22 19 23 27 11 358 360 1 356 4 31 24 33 24 2 2 359 325 349 352 337 341 336 266 216 194 217
95 91 98 63 330 113 128 124 120 101 79 80 84 78 64 52 47 68 63 85 67 46 39 18 23 21 23 12 9 360 359 360 8 9 15 28 6 360 4 352 2 2 298 306 317 317 272 241 214
86 112 114 75 323 99 135 141 147 113 113 104 92 79 74 47 31 23 25 43 61 58 42 27 27 34 31 15 5 350 355 354 357 359 359 8 17 1 11 2 5 335 302 305 311 317 309 294 239
36 46 29 123 144 291 115 109 128 125 119 103 96 102 89 105 75 34 20 14 47 58 51 35 26 34 32 26 356 3 352 349 7 7 0 8 5 8 348 359 360 357 347 321 266 283 299 311 303
91 354 335 300 137 216 151 193 177 161 153 137 134 130 134 84 53 41 23 358 66 48 47 32 29 41 38 32 21 20 4 357 350 353 349 352 359 358 356 347 355 346 343 326 333 264 256 278 284
135 294 5 341 337 25 252 91 208 166 173 151 154 137 95 66 63 39 25 359 76 66 55 41 27 28 36 38 29 21 5 335 328 350 350 347 351 358 350 359 350 345 328 335 336 334 320 259 260
184 213 202 213 143 39 236 119 239 168 141 134 118 98 88 76 56 26 20 32 44 46 50 46 28 14 39 44 24 23 13 356 355 355 352 348 348 350 349 353 351 357 348 336 330 336 331 319 239
263 64 19 15 16 211 112 58 207 142 116 125 118 103 103 90 67 25 27 21 27 16 63 56 33 15 29 30 16 18 12 2 350 343 341 348 347 348 341 347 344 354 347 343 354 3 353 357 339
42 88 143 169 159 300 162 182 237 141 120 123 112 125 105 101 87 63 43 66 8 343 90 57 43 33 36 31 6 10 3 354 339 336 338 342 347 334 328 337 344 353 349 357 2 4 6 349 337
12 49 218 102 292 68 205 43 7 129 123 122 127 105 110 102 84 76 55 113 7 318 149 120 75 41 41 13 358 359 359 360 348 344 339 337 333 333 336 331 346 351 352 10 355 356 351 344 342
87 170 64 2 94 274 294 138 228 167 159 152 106 114 109 96 73 65 77 51 348 306 296 211 131 136 99 24 6 358 353 353 351 339 336 336 327 326 330 326 346 344 350 15 3 345 352 344 340
45 53 49 114 123 163 248 286 176 137 123 108 100 142 140 141 167 247 236 217 229 287 307 256 188 160 98 25 24 358 336 344 351 337 327 327 324 320 328 328 338 344 346 6 4 349 352 343 338
3 132 139 123 258 232 152 271 128 122 135 159 199 195 191 178 203 209 231 223 234 258 290 302 269 214 184 170 54 356 328 338 337 320 322 328 320 314 316 334 340 337 339 9 356 348 348 342 335